sat.trackr.live / text

‹ back to catalog

LEMUR-2-NIMBUS2000

NORAD 58899 · 2024-022A

PAYLOAD ACTIVE UNKNOWN

§ Identity

Operator
Country
US
Launch date
2024-01-31
Launch site
RLLB
Launch vehicle
Mass (kg)
RCS (m²)

Purposes: earth_obs

External: N2YO · Heavens-Above · Gunter

§ Orbital elements

Epoch: 2026-05-25T03:15:34.251840Z

Period
93.56 min
Inclination
97.4140°
Eccentricity
0.0008760
Mean motion
15.39155496 rev/d
Perigee alt
442.6 km
Apogee alt
454.6 km
Semi-major
6,826.7 km
B*
4.3200e-4
RAAN
354.8598°
Arg perigee
190.3600°
Mean anomaly
169.7467°
Rev number
12,872

§ Raw data

LEMUR-2-NIMBUS20001 58899U 24022A   26145.13581310  .00016719  00000+0  43200-3 0  99942 58899  97.4140 354.8598 0008760 190.3600 169.7467 15.39155496128726

JSON: /api/v1/satellites/58899 · /tle

For live sub-satellite position, see the globe view (requires WebGL).

§ Visibility from observer

Set your observer location to see the next 7 days of passes ≥ 10°. The values pass through the URL so the page stays shareable.

No JS? Fill the form by hand. The geolocation button needs JavaScript.